Location: Lombard
(41.8800°N, 88.0080°W)
Time: 14:28:17
(UTC-06:00)

Transit 4A - Pass Details

Date: 08 December 2023
Orbit: 870 x 973 km, 66.8° (Epoch: 03 March)

Event Time Altitude Azimuth Distance (km) Brightness Sun altitude
Rises 17:36:49 0° 168° (SSE) 3,651 11.1 -13.7°
Reaches altitude 10° 17:39:55 10° 154° (SSE) 2,710 10.2 -14.2°
Maximum altitude 17:44:39 23° 105° (ESE) 1,958 9.1 -15.1°
Enters shadow 17:46:01 21° 87° (E) 2,031 9.1 -15.3°
Drops below altitude 10° 17:49:22 10° 57° (ENE) 2,706 - -15.9°
Sets 17:52:27 0° 43° (NE) 3,645 - -16.5°
